Weather History for KAEL - March, 2014

Change the Weather History Date:

Friday, March 28, 2014

  Actual Average Record
Temperature  
Mean Temperature 32 °F -  
Max Temperature 37 °F 44 °F 66 °F (2005)
Min Temperature 28 °F 29 °F 19 °F (2009)
Degree Days  
Heating Degree Days 32    
Moisture  
Dew Point 26 °F    
Average Humidity 79    
Maximum Humidity 100    
Minimum Humidity 56    
Precipitation  
Precipitation 0.00 in - - ()
Sea Level Pressure  
Sea Level Pressure 30.01 in    
Wind  
Wind Speed 12 mph (North)    
Max Wind Speed 20 mph    
Max Gust Speed 26 mph    
Visibility 10 miles    
Events      
Averages and records for this station are not official NWS values.
T = Trace of Precipitation, MM = Missing Value Source: NWS Daily Summary

Daily Weather History Graph

Daily Weather History Graph

Search for Another Location

Airport or City:

Trip Planner

Search our weather history database for the weather conditions in past years. The results will help you decide how hot, cold, wet, or windy it might be!

Date:

Astronomy

Mar. 28, 2014 Rise Set
Actual Time 7:02 AM CDT 7:35 PM CDT
Civil Twilight 6:33 AM CDT 8:04 PM CDT
Nautical Twilight 5:59 AM CDT 8:38 PM CDT
Astronomical Twilight 5:24 AM CDT 9:13 PM CDT
Moon 5:37 AM CDT (3/28) 5:29 PM CDT (3/28)
Length of Visible Light 13h 31m
Length of Day
12h 33m
Waning Crescent, 6% of the Moon is Illuminated
Mar 28
Waning Crescent
Mar 30
New
Apr 7
First Quarter
Apr 15
Full
Apr 22
Last Quarter

Hourly Weather History & Observations

Time (CDT) Temp. Windchill Dew Point Humidity Pressure Visibility Wind Dir Wind Speed Gust Speed Precip Events Conditions
12:10 AM 32.0 °F 20.5 °F 32.0 °F 100% 29.67 in 7.0 mi North 18.4 mph 24.2 mph N/A   Overcast
12:30 AM 32.0 °F 22.5 °F 32.0 °F 100% 29.69 in 7.0 mi NNW 12.7 mph 20.7 mph N/A   Overcast
12:49 AM 30.2 °F 18.9 °F 30.2 °F 100% 29.70 in 7.0 mi NNW 16.1 mph 21.9 mph N/A   Overcast
1:10 AM 30.2 °F 17.8 °F 30.2 °F 100% 29.71 in 7.0 mi NNW 19.6 mph 26.5 mph N/A   Overcast
1:30 AM 30.2 °F 19.8 °F 30.2 °F 100% 29.73 in 10.0 mi NNW 13.8 mph 24.2 mph N/A   Overcast
1:49 AM 30.2 °F 17.8 °F 30.2 °F 100% 29.75 in 7.0 mi NNW 19.6 mph 26.5 mph N/A   Overcast
2:10 AM 30.2 °F 18.1 °F 30.2 °F 100% 29.76 in 7.0 mi NNW 18.4 mph 26.5 mph N/A   Overcast
2:30 AM 30.2 °F 18.9 °F 30.2 °F 100% 29.77 in 7.0 mi North 16.1 mph 24.2 mph N/A   Overcast
2:49 AM 30.2 °F 19.3 °F 28.4 °F 93% 29.79 in 7.0 mi North 15.0 mph 23.0 mph N/A   Overcast
3:10 AM 30.2 °F 19.8 °F 28.4 °F 93% 29.80 in 7.0 mi North 13.8 mph 20.7 mph N/A   Overcast
3:30 AM 30.2 °F 17.8 °F 28.4 °F 93% 29.81 in 10.0 mi North 19.6 mph 24.2 mph N/A   Overcast
3:49 AM 30.2 °F 18.1 °F 28.4 °F 93% 29.83 in 10.0 mi North 18.4 mph 26.5 mph N/A   Overcast
4:10 AM 30.2 °F 19.3 °F 28.4 °F 93% 29.84 in 10.0 mi North 15.0 mph 24.2 mph N/A   Overcast
4:30 AM 30.2 °F 19.3 °F 28.4 °F 93% 29.85 in 10.0 mi NNW 15.0 mph 21.9 mph N/A   Overcast
4:49 AM 30.2 °F 20.2 °F 28.4 °F 93% 29.86 in 10.0 mi North 12.7 mph 23.0 mph N/A   Overcast
5:10 AM 30.2 °F 20.2 °F 26.6 °F 86% 29.87 in 10.0 mi North 12.7 mph - N/A   Overcast
5:30 AM 30.2 °F 21.9 °F 28.4 °F 93% 29.88 in 10.0 mi North 9.2 mph 17.3 mph N/A   Overcast
5:50 AM 30.2 °F 20.2 °F 26.6 °F 86% 29.89 in 10.0 mi NNW 12.7 mph 16.1 mph N/A   Overcast
6:10 AM 30.2 °F 20.8 °F 26.6 °F 86% 29.91 in 10.0 mi NNW 11.5 mph 17.3 mph N/A   Overcast
6:30 AM 30.2 °F 20.2 °F 26.6 °F 86% 29.91 in 10.0 mi NNW 12.7 mph 19.6 mph N/A   Overcast
6:50 AM 30.2 °F 20.2 °F 26.6 °F 86% 29.92 in 10.0 mi North 12.7 mph - N/A   Overcast
7:10 AM 30.2 °F 20.8 °F 26.6 °F 86% 29.93 in 10.0 mi North 11.5 mph 16.1 mph N/A   Overcast
7:30 AM 30.2 °F 19.8 °F 26.6 °F 86% 29.95 in 10.0 mi North 13.8 mph - N/A   Overcast
7:50 AM 28.4 °F 18.0 °F 24.8 °F 86% 29.95 in 10.0 mi North 12.7 mph 20.7 mph N/A   Overcast
8:10 AM 28.4 °F 18.0 °F 24.8 °F 86% 29.99 in 10.0 mi North 12.7 mph - N/A   Overcast
8:30 AM 30.2 °F 21.9 °F 24.8 °F 80% 30.00 in 10.0 mi North 9.2 mph - N/A   Overcast
8:50 AM 30.2 °F 21.9 °F 24.8 °F 80% 30.00 in 10.0 mi North 9.2 mph - N/A   Mostly Cloudy
9:10 AM 30.2 °F 20.2 °F 24.8 °F 80% 30.00 in 10.0 mi North 12.7 mph - N/A   Scattered Clouds
9:30 AM 32.0 °F 24.2 °F 24.8 °F 75% 30.00 in 10.0 mi North 9.2 mph - N/A   Scattered Clouds
9:49 AM 32.0 °F 23.6 °F 24.8 °F 75% 30.01 in 10.0 mi NNE 10.4 mph - N/A   Scattered Clouds
10:10 AM 32.0 °F 23.0 °F 24.8 °F 75% 30.03 in 10.0 mi North 11.5 mph - N/A   Scattered Clouds
10:30 AM 32.0 °F 25.6 °F 24.8 °F 75% 30.05 in 10.0 mi North 6.9 mph - N/A   Mostly Cloudy
10:49 AM 32.0 °F 24.2 °F 24.8 °F 75% 30.05 in 10.0 mi North 9.2 mph - N/A   Overcast
11:10 AM 33.8 °F 26.4 °F 24.8 °F 70% 30.06 in 10.0 mi North 9.2 mph - N/A   Overcast
11:30 AM 33.8 °F 26.4 °F 24.8 °F 70% 30.06 in 10.0 mi North 9.2 mph - N/A   Overcast
11:49 AM 33.8 °F 27.7 °F 24.8 °F 70% 30.06 in 10.0 mi North 6.9 mph - N/A   Mostly Cloudy
12:10 PM 33.8 °F 27.0 °F 24.8 °F 70% 30.07 in 10.0 mi NNW 8.1 mph - N/A   Mostly Cloudy
12:30 PM 35.6 °F 29.2 °F 24.8 °F 65% 30.07 in 10.0 mi North 8.1 mph - N/A   Scattered Clouds
12:49 PM 33.8 °F 26.4 °F 26.6 °F 75% 30.07 in 10.0 mi North 9.2 mph - N/A   Scattered Clouds
1:10 PM 35.6 °F 31.7 °F 26.6 °F 70% 30.08 in 10.0 mi North 4.6 mph - N/A   Overcast
1:30 PM 35.6 °F 28.6 °F 26.6 °F 70% 30.07 in 10.0 mi NNW 9.2 mph - N/A   Mostly Cloudy
1:49 PM 37.4 °F 31.4 °F 26.6 °F 65% 30.07 in 10.0 mi NNE 8.1 mph - N/A   Scattered Clouds
2:10 PM 37.4 °F 32.1 °F 26.6 °F 65% 30.07 in 10.0 mi North 6.9 mph - N/A   Scattered Clouds
2:30 PM 37.4 °F 30.8 °F 26.6 °F 65% 30.08 in 10.0 mi North 9.2 mph - N/A   Scattered Clouds
2:49 PM 37.4 °F 31.4 °F 26.6 °F 65% 30.09 in 10.0 mi NNW 8.1 mph - N/A   Mostly Cloudy
3:10 PM 37.4 °F 31.4 °F 26.6 °F 65% 30.09 in 10.0 mi North 8.1 mph - N/A   Overcast
3:30 PM 37.4 °F 32.1 °F 24.8 °F 60% 30.11 in 10.0 mi North 6.9 mph - N/A   Overcast
3:50 PM 37.4 °F 32.1 °F 24.8 °F 60% 30.12 in 10.0 mi North 6.9 mph - N/A   Mostly Cloudy
4:10 PM 37.4 °F 30.8 °F 24.8 °F 60% 30.12 in 10.0 mi NNE 9.2 mph - N/A   Mostly Cloudy
4:29 PM 37.4 °F 31.4 °F 23.0 °F 56% 30.12 in 10.0 mi NNE 8.1 mph - N/A   Mostly Cloudy
4:50 PM 37.4 °F 30.3 °F 23.0 °F 56% 30.12 in 10.0 mi North 10.4 mph - N/A   Clear
5:10 PM 35.6 °F 28.6 °F 24.8 °F 65% 30.12 in 10.0 mi NNE 9.2 mph - N/A   Scattered Clouds
5:30 PM 35.6 °F 28.6 °F 24.8 °F 65% 30.12 in 10.0 mi NNE 9.2 mph - N/A   Scattered Clouds
5:49 PM 35.6 °F 29.2 °F 24.8 °F 65% 30.13 in 10.0 mi North 8.1 mph - N/A   Scattered Clouds
6:10 PM 35.6 °F 29.2 °F 23.0 °F 60% 30.14 in 10.0 mi NNE 8.1 mph - N/A   Clear
6:30 PM 35.6 °F 29.9 °F 24.8 °F 65% 30.14 in 10.0 mi NNE 6.9 mph - N/A   Clear
6:49 PM 35.6 °F 29.2 °F 24.8 °F 65% 30.14 in 10.0 mi NE 8.1 mph - N/A   Scattered Clouds
7:10 PM 35.6 °F 30.7 °F 23.0 °F 60% 30.14 in 10.0 mi NNE 5.8 mph - N/A   Scattered Clouds
7:30 PM 33.8 °F 29.6 °F 23.0 °F 65% 30.15 in 10.0 mi NE 4.6 mph - N/A   Clear
7:49 PM 32.0 °F 28.7 °F 24.8 °F 75% 30.14 in 10.0 mi NNE 3.5 mph - N/A   Clear
8:10 PM 32.0 °F 28.7 °F 23.0 °F 69% 30.15 in 10.0 mi North 3.5 mph - N/A   Clear
8:30 PM 30.2 °F 26.7 °F 24.8 °F 80% 30.16 in 10.0 mi NNW 3.5 mph - N/A   Clear
8:50 PM 30.2 °F - 24.8 °F 80% 30.16 in 10.0 mi Calm Calm - N/A   Clear
9:10 PM 30.2 °F 26.7 °F 24.8 °F 80% 30.17 in 10.0 mi NNW 3.5 mph - N/A   Clear
9:29 PM 30.2 °F 26.7 °F 26.6 °F 86% 30.19 in 10.0 mi NNW 3.5 mph - N/A   Mostly Cloudy
9:50 PM 30.2 °F 25.4 °F 24.8 °F 80% 30.19 in 10.0 mi NNW 4.6 mph - N/A   Mostly Cloudy
10:10 PM 30.2 °F 25.4 °F 24.8 °F 80% 30.20 in 10.0 mi NNW 4.6 mph - N/A   Mostly Cloudy
10:30 PM 30.2 °F 25.4 °F 24.8 °F 80% 30.20 in 10.0 mi NNW 4.6 mph - N/A   Overcast
10:50 PM 30.2 °F 25.4 °F 24.8 °F 80% 30.20 in 10.0 mi North 4.6 mph - N/A   Overcast
11:09 PM 30.2 °F 25.4 °F 24.8 °F 80% 30.20 in 10.0 mi North 4.6 mph - N/A   Overcast
11:30 PM 30.2 °F 24.3 °F 26.6 °F 86% 30.20 in 10.0 mi NNW 5.8 mph - N/A   Overcast
11:50 PM 30.2 °F 24.3 °F 24.8 °F 80% 30.21 in 10.0 mi North 5.8 mph - N/A   Overcast